When you browse on this site, cookies collect data to enhance your experience and personalize the content and advertising you see.
Visit our Privacy Policy to learn more. By continuing to use the site, you agree to this use of cookies and data.
EN

Hourly Weather Boxmeer

Today, 7 August, Friday

Time Temperature Precipitation Wind Pressure Humidity
00:00 +23°C° 0 mm 2 mps 764 mmHg 59%
01:00 +21°C° 0 mm 2 mps 764 mmHg 58%
02:00 +21°C° 0 mm 2 mps 763 mmHg 58%
03:00 +20°C° 0 mm 2 mps 763 mmHg 58%
04:00 +21°C° 0 mm 2 mps 763 mmHg 60%
05:00 +23°C° 0 mm 1 mps 764 mmHg 62%
06:00 +23°C° 0 mm 1 mps 764 mmHg 64%
07:00 +25°C° 0 mm 1 mps 764 mmHg 59%
08:00 +27°C° 0 mm 1 mps 764 mmHg 53%
09:00 +29°C° 0 mm 1 mps 764 mmHg 48%
10:00 +30°C° 0 mm 1 mps 764 mmHg 44%
11:00 +31°C° 0 mm 1 mps 763 mmHg 41%
12:00 +32°C° 0 mm 1 mps 763 mmHg 37%
13:00 +33°C° 0 mm 1 mps 763 mmHg 36%
14:00 +33°C° 0 mm 1 mps 763 mmHg 35%
15:00 +33°C° 0 mm 1 mps 763 mmHg 34%
16:00 +32°C° 0 mm 1 mps 762 mmHg 39%
17:00 +31°C° 0 mm 2 mps 762 mmHg 45%
18:00 +30°C° 0 mm 2 mps 762 mmHg 50%
19:00 +28°C° 0 mm 2 mps 763 mmHg 51%
20:00 +27°C° 0 mm 2 mps 763 mmHg 52%
21:00 +25°C° 0 mm 3 mps 763 mmHg 54%
22:00 +25°C° 0 mm 2 mps 763 mmHg 54%
23:00 +24°C° 0 mm 2 mps 763 mmHg 54%

Tomorrow, 8 August, Saturday

Time Temperature Precipitation Wind Pressure Humidity
00:00 +23°C° 0 mm 1 mps 763 mmHg 54%
01:00 +23°C° 0 mm 1 mps 763 mmHg 56%
02:00 +23°C° 0 mm 1 mps 763 mmHg 58%
03:00 +22°C° 0 mm 1 mps 763 mmHg 59%
04:00 +23°C° 0 mm 1 mps 763 mmHg 60%
05:00 +24°C° 0 mm 1 mps 763 mmHg 61%
06:00 +25°C° 0 mm 1 mps 763 mmHg 62%
07:00 +26°C° 0 mm 1 mps 763 mmHg 57%
08:00 +28°C° 0 mm 1 mps 763 mmHg 52%
09:00 +30°C° 0 mm 1 mps 764 mmHg 47%
10:00 +31°C° 0 mm 1 mps 763 mmHg 44%
11:00 +32°C° 0 mm 1 mps 763 mmHg 41%
12:00 +35°C° 0 mm 2 mps 763 mmHg 37%
13:00 +35°C° 0 mm 2 mps 763 mmHg 37%
14:00 +35°C° 0 mm 2 mps 763 mmHg 37%
15:00 +35°C° 0 mm 3 mps 763 mmHg 37%
16:00 +33°C° 0 mm 3 mps 763 mmHg 43%
17:00 +31°C° 0 mm 3 mps 763 mmHg 48%
18:00 +30°C° 0 mm 3 mps 763 mmHg 54%
19:00 +28°C° 0 mm 3 mps 763 mmHg 59%
20:00 +27°C° 0 mm 3 mps 763 mmHg 64%
21:00 +25°C° 0 mm 3 mps 763 mmHg 69%
22:00 +25°C° 0 mm 3 mps 763 mmHg 71%
23:00 +24°C° 0 mm 3 mps 763 mmHg 73%

Day after tomorrow, 9 August, Sunday

Time Temperature Precipitation Wind Pressure Humidity
00:00 +24°C° 0 mm 3 mps 763 mmHg 75%
01:00 +24°C° 0 mm 3 mps 763 mmHg 77%
02:00 +22°C° 0 mm 3 mps 763 mmHg 78%
03:00 +22°C° 0 mm 3 mps 762 mmHg 80%
04:00 +22°C° 0 mm 3 mps 762 mmHg 79%
05:00 +24°C° 0 mm 3 mps 763 mmHg 78%
06:00 +24°C° 0 mm 3 mps 763 mmHg 77%
07:00 +26°C° 0 mm 3 mps 763 mmHg 69%
08:00 +28°C° 0 mm 3 mps 762 mmHg 62%
09:00 +30°C° 0 mm 3 mps 762 mmHg 55%
10:00 +33°C° 0 mm 3 mps 762 mmHg 50%
11:00 +34°C° 0 mm 3 mps 762 mmHg 45%
12:00 +35°C° 0 mm 3 mps 762 mmHg 40%
13:00 +36°C° 0 mm 3 mps 761 mmHg 39%
14:00 +36°C° 0 mm 3 mps 761 mmHg 37%
15:00 +36°C° 0 mm 3 mps 761 mmHg 36%
16:00 +34°C° 0 mm 4 mps 761 mmHg 42%
17:00 +33°C° 0 mm 4 mps 761 mmHg 49%
18:00 +32°C° 0 mm 4 mps 761 mmHg 56%
19:00 +29°C° 0 mm 4 mps 761 mmHg 57%
20:00 +28°C° 0 mm 4 mps 761 mmHg 58%
21:00 +27°C° 0 mm 4 mps 761 mmHg 59%
22:00 +26°C° 0 mm 4 mps 761 mmHg 61%
23:00 +26°C° 0 mm 4 mps 761 mmHg 64%

10 August, Monday

Time Temperature Precipitation Wind Pressure Humidity
00:00 +25°C° 0 mm 3 mps 761 mmHg 67%
01:00 +25°C° 0 mm 3 mps 761 mmHg 69%
02:00 +24°C° 0 mm 3 mps 761 mmHg 71%
03:00 +24°C° 0 mm 3 mps 761 mmHg 73%
04:00 +24°C° 0 mm 3 mps 761 mmHg 73%
05:00 +24°C° 0 mm 3 mps 761 mmHg 73%
06:00 +25°C° 0 mm 3 mps 761 mmHg 72%
07:00 +27°C° 0 mm 3 mps 761 mmHg 66%
08:00 +29°C° 0 mm 3 mps 761 mmHg 59%
09:00 +31°C° 0 mm 3 mps 761 mmHg 53%
10:00 +33°C° 0 mm 3 mps 760 mmHg 48%
11:00 +34°C° 0 mm 3 mps 760 mmHg 44%
12:00 +35°C° 0 mm 3 mps 760 mmHg 39%
13:00 +35°C° 0 mm 2 mps 760 mmHg 38%
14:00 +35°C° 0 mm 2 mps 760 mmHg 37%
15:00 +35°C° 0 mm 2 mps 760 mmHg 36%
16:00 +34°C° 0 mm 3 mps 760 mmHg 42%
17:00 +33°C° 0 mm 3 mps 760 mmHg 48%
18:00 +31°C° 0 mm 3 mps 760 mmHg 53%
19:00 +29°C° 0 mm 3 mps 760 mmHg 55%
20:00 +28°C° 0 mm 4 mps 760 mmHg 57%
21:00 +27°C° 0 mm 4 mps 760 mmHg 59%
22:00 +27°C° 0 mm 4 mps 760 mmHg 60%
23:00 +26°C° 0 mm 3 mps 760 mmHg 61%

11 August, Tuesday

Time Temperature Precipitation Wind Pressure Humidity
00:00 +26°C° 0 mm 3 mps 760 mmHg 63%
01:00 +25°C° 0 mm 3 mps 760 mmHg 65%
02:00 +25°C° 0 mm 3 mps 760 mmHg 68%
03:00 +24°C° 0 mm 2 mps 760 mmHg 70%
04:00 +25°C° 0 mm 3 mps 760 mmHg 71%
05:00 +25°C° 0 mm 3 mps 760 mmHg 71%
06:00 +25°C° 0 mm 3 mps 760 mmHg 71%
07:00 +27°C° 0 mm 3 mps 760 mmHg 65%
08:00 +29°C° 0 mm 2 mps 760 mmHg 58%
09:00 +31°C° 0 mm 2 mps 760 mmHg 52%
10:00 +32°C° 0 mm 2 mps 760 mmHg 47%
11:00 +34°C° 0 mm 2 mps 760 mmHg 43%
12:00 +35°C° 0 mm 2 mps 760 mmHg 39%
13:00 +36°C° 0 mm 2 mps 760 mmHg 37%
14:00 +36°C° 0 mm 2 mps 759 mmHg 36%
15:00 +36°C° 0 mm 2 mps 759 mmHg 34%
16:00 +35°C° 0 mm 2 mps 759 mmHg 39%
17:00 +34°C° 0 mm 2 mps 759 mmHg 44%
18:00 +32°C° 0 mm 2 mps 759 mmHg 49%
19:00 +31°C° 0 mm 3 mps 759 mmHg 51%
20:00 +30°C° 0 mm 3 mps 759 mmHg 53%
21:00 +28°C° 0 mm 3 mps 759 mmHg 54%
22:00 +28°C° 0 mm 3 mps 759 mmHg 57%
23:00 +27°C° 0 mm 3 mps 759 mmHg 59%

12 August, Wednesday

Time Temperature Precipitation Wind Pressure Humidity
00:00 +27°C° 0 mm 3 mps 760 mmHg 62%
01:00 +26°C° 0 mm 3 mps 759 mmHg 65%
02:00 +25°C° 0 mm 3 mps 759 mmHg 68%
03:00 +24°C° 0 mm 3 mps 759 mmHg 71%
04:00 +25°C° 0 mm 3 mps 759 mmHg 71%
05:00 +25°C° 0 mm 3 mps 759 mmHg 71%
06:00 +25°C° 0 mm 3 mps 759 mmHg 71%
07:00 +27°C° 0 mm 3 mps 759 mmHg 66%
08:00 +29°C° 0 mm 3 mps 759 mmHg 60%
09:00 +31°C° 0 mm 3 mps 759 mmHg 54%
10:00 +33°C° 0 mm 3 mps 759 mmHg 49%
11:00 +34°C° 0 mm 3 mps 758 mmHg 44%
12:00 +35°C° 0 mm 3 mps 758 mmHg 40%
13:00 +36°C° 0 mm 3 mps 758 mmHg 38%
14:00 +36°C° 0 mm 3 mps 758 mmHg 37%
15:00 +36°C° 0 mm 3 mps 757 mmHg 36%
16:00 +35°C° 0 mm 3 mps 757 mmHg 41%
17:00 +33°C° 0 mm 4 mps 757 mmHg 45%
18:00 +32°C° 0 mm 5 mps 757 mmHg 50%
19:00 +30°C° 0 mm 5 mps 757 mmHg 50%
20:00 +29°C° 0 mm 5 mps 758 mmHg 50%
21:00 +28°C° 0 mm 4 mps 758 mmHg 50%
22:00 +27°C° 0 mm 4 mps 758 mmHg 52%
23:00 +26°C° 0 mm 4 mps 758 mmHg 55%
Show more